This demonstration page uses our WeatherBlox Daily Observations layout. Learn more.

Left ArrowRight Arrow

38.80484, -77.04692

Hourly Observations for August 9, 2021

Temp ( °F °C ) Dew Point ( °F °C ) Humidity (%) Winds ( mph kmh ) Pressure ( in mb ) Visibility ( mi km ) Precip ( " mm )
12:52 am 00:52 Mostly Cloudy 75 23.9 70 21.1 84 84 S 8 13 30.10 1019 10 16 N/A
1:33 am 01:33 Mostly Cloudy 75 23.9 70 21.1 84 84 S 6 9 30.10 1019 10 16 N/A
1:52 am 01:52 Mostly Cloudy 75 23.9 70 21.1 84 84 S 8 13 30.10 1019 10 16 N/A
2:52 am 02:52 Mostly Cloudy 74 23.3 70 21.1 88 88 SSW 8 13 30.10 1019 10 16 N/A
3:52 am 03:52 Mostly Cloudy 74 23.3 70 21.1 88 88 SSW 7 11 30.10 1019 10 16 N/A
4:52 am 04:52 Mostly Cloudy 74 23.3 70 21.1 88 88 S 5 7 30.11 1020 10 16 N/A
5:52 am 05:52 Cloudy 74 23.3 70 21.1 88 88 SSE 3 6 30.12 1020 10 16 N/A
6:52 am 06:52 Mostly Cloudy 74 23.3 70 21.1 88 88 SE 6 9 30.13 1020 10 16 N/A
7:52 am 07:52 Mostly Cloudy 75 23.9 70 21.1 84 84 N N/A 30.14 1021 10 16 N/A
8:52 am 08:52 Mostly Cloudy 76 24.4 70 21.1 82 82 S 3 6 30.15 1021 10 16 N/A
9:52 am 09:52 Mostly Cloudy 79 26.1 71 21.7 77 77 SE 5 7 30.15 1021 10 16 N/A
10:52 am 10:52 Partly Cloudy 81 27.2 72 22.2 74 74 S 7 11 30.15 1021 10 16 N/A
11:52 am 11:52 Partly Cloudy 85 29.4 72 22.2 65 65 SSE 8 13 30.14 1021 10 16 N/A
12:52 pm 12:52 Partly Cloudy 88 31.1 72 22.2 59 59 SSE 8 13 30.13 1020 10 16 N/A
1:52 pm 13:52 Partly Cloudy 90 32.2 70 21.1 52 52 S 7 11 30.11 1020 10 16 N/A
2:12 pm 14:12 Partly Cloudy with Nearby Thunderstorms 89 31.7 72 22.2 57 57 S 9 15 30.10 1019 10 16 N/A
2:27 pm 14:27 Partly Cloudy 90 32.2 69 20.6 50 50 SSW 13 20 30.10 1019 10 16 N/A
2:52 pm 14:52 Partly Cloudy 91 32.8 71 21.7 52 52 S 15 24 30.09 1019 10 16 N/A
3:52 pm 15:52 Mostly Cloudy 90 32.2 72 22.2 56 56 S 16 26 30.07 1018 10 16 N/A
4:52 pm 16:52 Mostly Cloudy 90 32.2 73 22.8 58 58 S 13 20 30.06 1018 10 16 N/A
5:52 pm 17:52 Mostly Cloudy 90 32.2 72 22.2 56 56 S 15 24 30.05 1018 10 16 N/A
5:54 pm 17:54 Mostly Cloudy with Thunderstorms 90 32.2 72 22.2 56 56 S 14 22 30.05 1017 10 16 N/A
6:52 pm 18:52 Mostly Cloudy with Thunderstorms 87 30.6 72 22.2 61 61 ENE 16 26 30.08 1019 10 16 N/A
7:27 pm 19:27 Mostly Cloudy with Nearby Thunderstorms 79 26.1 71 21.7 77 77 NE 17 28 30.09 1019 10 16 N/A
7:52 pm 19:52 Mostly Cloudy with Thunderstorms 77 25 70 21.1 79 79 NE 16 26 30.11 1020 10 16 N/A
8:23 pm 20:23 Mostly Cloudy with Nearby Thunderstorms 77 25 70 21.1 79 79 NE 9 15 30.12 1020 10 16 N/A
8:31 pm 20:31 Mostly Cloudy with Thunderstorms 77 25 70 21.1 79 79 NE 8 13 30.12 1020 10 16 N/A
8:52 pm 20:52 Mostly Cloudy 79 26.1 69 20.6 72 72 E 3 6 30.12 1020 10 16 N/A
9:52 pm 21:52 Partly Cloudy 78 25.6 70 21.1 76 76 SSW 6 9 30.11 1020 10 16 N/A
10:52 pm 22:52 Partly Cloudy 78 25.6 70 21.1 76 76 SSE 5 7 30.12 1020 10 16 N/A
11:52 pm 23:52 Partly Cloudy 79 26.1 71 21.7 77 77 SSE 8 13 30.12 1020 10 16 N/A

Powered by AerisWeather